Location: Le Gr�zie
(43.6000°N, 13.5000°E)
Time: 02:58:27
(UTC+00:00)

USA 234 - Pass Details

Date: 09 April 2020
Orbit: 1102 x 1106 km, 123.0° (Epoch: 14 May)

Event Time Altitude Azimuth Distance (km) Brightness Sun altitude
Rises 19:51:00 0° 51° (NE) 3,925 6.0 -22.0°
Reaches altitude 10° 19:53:33 10° 55° (NE) 2,965 5.3 -22.3°
Maximum altitude 19:59:59 57° 134° (SE) 1,276 3.2 -23.2°
Drops below altitude 10° 20:06:24 10° 212° (SSW) 2,954 5.4 -24.1°
Sets 20:08:55 0° 217° (SW) 3,910 6.1 -24.5°
